This is the latest recevied weather packets stored in our database for station/object KN4MGS. If no packets are shown the sender has not sent any weather packets the latest 10 day(s).
| Time | Temp. | Humidity | Pressure | Rain* | Wind** | Luminosity | Snow |
|---|---|---|---|---|---|---|---|
| 1778006981 | 27.22° C | 41% | 1018.9 hPa | 0 mm | - | 669 W/m² | - |
| 1778006678 | 26.67° C | 44% | 1019.1 hPa | 0 mm | - | 686 W/m² | - |
| 1778006374 | 26.67° C | 43% | 1019.1 hPa | 0 mm | - | 740 W/m² | - |
| 1778006071 | 26.67° C | 43% | 1019.1 hPa | 0 mm | - | 735 W/m² | - |
| 1778005768 | 26.67° C | 44% | 1019.1 hPa | 0 mm | - | 750 W/m² | - |
| 1778005465 | 27.22° C | 44% | 1019.2 hPa | 0 mm | - | 730 W/m² | - |
| 1778005161 | 27.22° C | 44% | 1019.4 hPa | 0 mm | - | 746 W/m² | - |
| 1778004859 | 26.67° C | 45% | 1019.3 hPa | 0 mm | - | 826 W/m² | - |
| 1778004555 | 26.67° C | 43% | 1019.5 hPa | 0 mm | - | 521 W/m² | - |
| 1778004252 | 26.11° C | 43% | 1019.9 hPa | 0 mm | - | 873 W/m² | - |
| 1778003948 | 26.11° C | 44% | 1019.9 hPa | 0 mm | - | 790 W/m² | - |
| 1778003645 | 26.11° C | 45% | 1019.7 hPa | 0 mm | - | 419 W/m² | - |
| 1778003341 | 26.11° C | 46% | 1019.9 hPa | 0 mm | - | 555 W/m² | - |
| 1778003039 | 25.56° C | 46% | 1019.9 hPa | 0 mm | - | 758 W/m² | - |
| 1778002735 | 26.11° C | 44% | 1019.7 hPa | 0 mm | - | 750 W/m² | - |
| 1778002431 | 26.11° C | 45% | 1020.1 hPa | 0 mm | - | 658 W/m² | - |
| 1778002128 | 25° C | 43% | 1019.7 hPa | 0 mm | - | 524 W/m² | - |
| 1778001826 | 26.11° C | 41% | 1019.7 hPa | 0 mm | - | 394 W/m² | - |
| 1778001525 | 26.11° C | 39% | 1019.7 hPa | 0 mm | - | 796 W/m² | - |
| 1778001223 | 26.11° C | 43% | 1020 hPa | 0 mm | - | 684 W/m² | - |
| 1778000919 | 25.56° C | 43% | 1019.9 hPa | 0 mm | - | 749 W/m² | - |
| 1778000616 | 26.11° C | 44% | 1020 hPa | 0 mm | - | 646 W/m² | - |
| 1778000311 | 26.11° C | 47% | 1020.1 hPa | 0 mm | - | 746 W/m² | - |
| 1778000007 | 26.11° C | 44% | 1019.9 hPa | 0 mm | - | 772 W/m² | - |
| 1777999703 | 26.11° C | 44% | 1019.9 hPa | 0 mm | - | 766 W/m² | - |
* Rain latest hour (hover to see other rain measurements)
** Current wind speed in m/s (hover to see current wind gust speed)